QPF
0.00 0.00 0.00 0.00 0.00 0.00 0.00 0.00 0.00 0.00 0.00 0.00 0.00 0.00 0.00 0.00 0.00 0.00 0.00 0.00 0.00 0.00 0.00 0.00 0.00 0.00 0.00 0.00 0.00 0.00 0.00 0.00
0.00 0.00 0.00 0.00 0.00 0.00 0.00 0.00 0.00 0.00 0.00 0.00 0.00 0.00 0.00 0.00 0.00 0.00 0.00 0.00 0.00 0.00 0.00 0.00 0.00 0.00 0.00 0.00 0.00 0.00 0.00 0.00
0.00 0.00 0.00 0.00 0.00 0.00 0.00 0.00 0.00 0.00 0.00 0.00 0.00 0.00 0.00 0.00 0.00 0.00 0.00 0.00 0.00 0.00 0.00 0.00 0.00 0.00 0.00 0.00 0.00 0.00 0.00 0.00
0.00 0.00 0.00 0.00 0.00 0.00 0.00 0.00 0.00 0.00 0.00 0.00 0.00 0.00 0.00 0.00 0.00 0.00 0.00 0.00 0.00 0.00 0.00 0.00 0.00 0.00 0.00 0.00 0.00 0.00 0.00 0.00
0.00 0.00 0.00 0.00 0.00 0.00 0.00 0.00 0.00 0.00 0.00 0.00 0.00 0.00 0.00 0.00 0.00 0.00 0.00 0.00 0.00 0.00 0.00 0.00 0.00 0.00 0.00 0.00 0.00 0.00 0.00 0.00
0.00 0.00 0.00 0.00 0.00 0.00 0.00 0.00 0.00 0.00 0.00 0.00 0.00 0.00 0.00 0.00 0.00 0.00 0.00 0.00 0.00 0.00 0.00 0.00 0.00 0.00 0.00 0.00 0.00 0.00 0.00 0.00
0.00 0.00 0.00 0.00 0.00 0.00 0.00 0.00 0.00 0.00 0.00 0.00 0.00 0.00 0.00 0.00 0.00 0.00 0.00 0.00 0.00 0.00 0.00 0.00 0.00 0.00 0.00 0.00 0.00 0.00 0.00 0.00
0.00 0.00 0.00 0.00 0.00 0.00 0.00 0.00 0.00 0.00 0.00 0.00 0.00 0.00 0.00 0.00 0.00 0.00 0.00 0.00 0.00 0.00 0.00 0.00 0.00 0.00 0.00 0.00 0.00 0.00 0.00 0.00
0.00 0.00 0.00 0.00 0.00 0.00 0.00 0.00 0.00 0.00 0.00 0.00 0.00 0.00 0.00 0.00 0.00 0.00 0.00 0.00 0.00 0.00 0.00 0.00 0.00 0.00 0.00 0.00 0.00 0.00 0.00 0.00
0.00 0.00 0.00 0.00 0.00 0.00 0.00 0.00 0.00 0.00 0.00 0.00 0.00 0.00 0.00 0.00 0.00 0.00 0.00 0.00 0.00 0.00 0.00 0.00 0.00 0.00 0.00 0.00 0.00 0.00 0.00 0.00
0.00 0.00 0.00 0.00 0.00 0.00 0.00 0.00 0.00 0.00 0.00 0.00 0.00 0.00 0.00 0.00 0.00 0.00 0.00 0.00 0.00 0.00 0.00 0.00 0.00 0.00 0.00 0.00 0.00 0.00 0.00 0.00
0.00 0.00 0.00 0.00 0.00 0.00 0.00 0.00 0.00 0.00 0.00 0.00 0.00 0.00 0.00 0.00 0.00 0.00 0.00 0.00 0.00 0.00 0.00 0.00 0.00 0.00 0.00 0.00 0.00 0.00 0.00 0.00
0.00 0.00 0.00 0.00 0.00 0.00 0.00 0.00 0.00 0.00 0.00 0.00 0.00 0.00 0.00 0.00 0.00 0.00 0.00 0.00 0.00 0.00 0.00 0.00 0.00 0.00 0.00 0.00 0.00 0.00 0.00 0.00
0.00 0.00 0.00 0.00 0.00 0.00 0.00 0.00 0.00 0.00 0.00 0.00 0.00 0.00 0.00 0.00 0.00 0.00 0.00 0.00 0.00 0.00 0.00 0.00 0.00 0.00 0.00 0.00 0.00 0.00 0.00 0.00
0.00 0.00 0.00 0.00 0.00 0.00 0.00 0.00 0.00 0.00 0.00 0.00 0.00 0.00 0.00 0.00 0.00 0.00 0.00 0.00 0.00 0.00 0.00 0.00 0.00 0.00 0.00 0.00 0.00 0.00 0.00 0.00
0.00 0.00 0.00 0.00 0.00 0.00 0.00 0.00 0.00 0.00 0.00 0.00 0.00 0.00 0.00 0.00 0.00 0.00 0.00 0.00 0.00 0.00 0.00 0.00 0.00 0.00 0.00 0.00 0.00 0.00 0.00 0.00
0.00 0.00 0.00 0.00 0.00 0.00 0.00 0.00 0.00 0.00 0.00 0.00 0.00 0.00 0.00 0.00 0.00 0.00 0.00 0.00 0.00 0.00 0.00 0.00 0.00 0.00 0.00 0.00 0.00 0.00 0.00 0.00
0.00 0.00 0.00 0.00 0.00 0.00 0.00 0.00 0.00 0.00 0.00 0.00 0.00 0.00 0.00 0.00 0.00 0.00 0.00 0.00 0.00 0.00 0.00 0.00 0.00 0.00 0.00 0.00 0.00 0.00 0.00 0.00
0.00 0.00 0.00 0.00 0.00 0.00 0.00 0.00 0.00 0.00 0.00 0.00 0.00 0.00 0.00 0.00 0.00 0.00 0.00 0.00 0.00 0.00 0.00 0.00 0.00 0.00 0.00 0.00 0.00 0.00 0.00 0.00
MSLP
1020.55 1020.72 1020.87 1021.03 1021.15 1021.13 1021.26 1021.63 1021.84 1022.11 1022.57 1022.84 1023.15 1023.33 1023.59 1023.59 1023.58 1023.52 1023.27 1023.13 1023.04 1023.03 1022.88 1022.63 1022.24 1021.99 1021.81 1021.56 1021.44 1021.15 1021.09 1020.80
1021.38 1021.46 1021.23 1021.51 1021.80 1021.84 1022.10 1022.46 1022.83 1022.85 1023.14 1023.35 1023.62 1023.95 1024.12 1024.09 1023.89 1023.67 1023.54 1023.47 1023.34 1023.24 1023.18 1023.04 1022.77 1022.51 1022.27 1022.02 1021.76 1021.43 1021.14 1020.86
1020.60 1021.72 1021.32 1021.64 1022.34 1022.40 1022.55 1022.64 1022.81 1023.07 1023.17 1023.35 1023.59 1023.98 1024.32 1024.30 1024.15 1024.00 1023.87 1023.71 1023.59 1023.46 1023.51 1023.46 1023.18 1022.76 1022.33 1022.29 1022.23 1022.07 1021.79 1021.38
1020.74 1021.23 1021.45 1021.96 1022.51 1022.58 1022.55 1022.68 1022.90 1023.17 1023.32 1023.62 1024.01 1024.22 1024.49 1024.66 1024.63 1024.49 1024.26 1024.06 1023.90 1023.71 1023.67 1023.63 1023.42 1023.11 1023.01 1022.82 1022.70 1022.68 1022.42 1021.92
1020.35 1021.09 1021.64 1022.04 1022.28 1022.25 1022.40 1022.80 1022.94 1023.40 1023.52 1023.86 1024.39 1025.03 1025.30 1025.36 1025.26 1025.10 1024.73 1024.33 1024.05 1023.81 1023.69 1023.58 1023.50 1023.35 1023.20 1023.01 1022.72 1022.72 1022.61 1022.33
1020.47 1020.98 1021.34 1021.72 1022.03 1022.23 1022.66 1023.00 1023.27 1023.69 1023.89 1024.04 1024.44 1025.10 1025.29 1025.25 1025.23 1025.07 1024.74 1024.31 1024.04 1023.84 1023.68 1023.69 1023.68 1023.45 1023.20 1023.05 1022.80 1022.67 1022.57 1022.39
1020.83 1021.05 1021.35 1021.79 1022.20 1022.44 1023.01 1023.40 1023.98 1024.10 1024.18 1024.41 1024.54 1024.90 1025.15 1025.31 1025.24 1025.16 1024.91 1024.63 1024.14 1023.95 1023.77 1023.72 1023.60 1023.44 1023.21 1022.95 1022.68 1022.53 1022.37 1022.19
1021.35 1021.75 1022.03 1022.04 1022.53 1023.15 1023.77 1023.94 1024.24 1024.15 1024.41 1024.71 1024.91 1025.07 1025.20 1025.30 1025.43 1025.39 1025.08 1024.63 1024.24 1024.05 1023.80 1023.66 1023.51 1023.24 1022.96 1022.72 1022.55 1022.24 1021.99 1021.90
1022.48 1022.54 1022.68 1022.98 1022.96 1023.41 1024.07 1024.23 1024.15 1024.80 1024.91 1024.99 1025.26 1025.43 1025.49 1025.62 1025.77 1025.65 1025.52 1025.29 1024.88 1024.47 1024.31 1024.08 1023.77 1023.44 1023.10 1022.76 1022.45 1021.92 1021.58 1021.34
1023.15 1023.40 1023.68 1023.79 1024.06 1024.37 1024.49 1024.53 1025.00 1025.23 1025.36 1025.63 1025.88 1025.97 1026.03 1026.13 1026.18 1026.00 1026.03 1025.76 1025.25 1024.96 1024.34 1024.15 1023.84 1023.43 1023.08 1022.61 1022.53 1022.24 1021.69 1021.26
1023.93 1024.27 1024.58 1025.07 1025.25 1025.32 1025.23 1025.50 1025.77 1025.99 1026.15 1026.38 1026.60 1026.67 1026.68 1026.64 1026.70 1026.66 1026.51 1026.29 1025.92 1025.55 1025.26 1024.94 1024.60 1024.19 1023.70 1023.30 1022.86 1022.28 1021.76 1021.37
1024.38 1024.81 1025.38 1025.73 1025.96 1026.12 1026.29 1026.44 1026.61 1026.86 1027.04 1027.22 1027.27 1027.36 1027.34 1027.34 1027.33 1027.23 1027.08 1026.81 1026.49 1026.16 1025.82 1025.52 1025.16 1024.71 1024.22 1023.78 1023.25 1022.61 1022.22 1021.81
1024.78 1025.35 1025.69 1025.96 1026.46 1026.81 1027.02 1027.22 1027.32 1027.58 1027.71 1027.78 1027.89 1027.88 1027.82 1027.71 1027.59 1027.54 1027.31 1027.08 1026.72 1026.45 1026.14 1025.74 1025.26 1024.84 1024.40 1023.94 1023.34 1022.81 1022.43 1022.01
1025.13 1025.57 1025.89 1026.35 1026.74 1027.22 1027.55 1027.78 1027.89 1027.92 1028.02 1028.17 1028.26 1028.25 1028.11 1027.99 1027.89 1027.76 1027.43 1027.27 1027.01 1026.71 1026.22 1025.78 1025.39 1024.96 1024.38 1023.82 1023.26 1022.95 1022.65 1022.26
1025.19 1025.66 1026.15 1026.57 1027.06 1027.51 1027.78 1028.05 1028.05 1028.15 1028.25 1028.46 1028.67 1028.63 1028.41 1028.23 1028.12 1027.86 1027.59 1027.30 1027.10 1026.77 1026.45 1026.05 1025.57 1024.89 1024.31 1023.90 1023.45 1023.05 1022.55 1021.98
1025.01 1025.60 1026.24 1026.79 1027.40 1027.66 1027.92 1028.29 1028.34 1028.45 1028.56 1028.72 1028.90 1028.75 1028.48 1028.35 1028.16 1028.04 1027.66 1027.42 1027.25 1027.06 1026.54 1026.07 1025.62 1025.02 1024.26 1023.98 1023.52 1022.99 1022.36 1021.53
1024.79 1025.47 1026.25 1026.94 1027.36 1027.69 1028.10 1028.44 1028.44 1028.53 1028.58 1028.91 1028.92 1028.68 1028.59 1028.55 1028.44 1028.13 1027.86 1027.75 1027.47 1027.00 1026.54 1026.16 1025.65 1025.11 1024.53 1024.09 1023.55 1022.84 1022.23 1021.56
1024.56 1025.32 1026.12 1026.85 1027.30 1027.66 1028.10 1028.38 1028.44 1028.68 1028.64 1028.91 1028.99 1028.82 1028.78 1028.65 1028.41 1028.26 1028.10 1027.71 1027.33 1027.00 1026.60 1026.25 1025.80 1025.18 1024.57 1024.00 1023.39 1022.80 1021.96 1021.14
1024.62 1025.36 1026.20 1026.80 1027.29 1027.66 1027.99 1028.28 1028.62 1028.81 1028.82 1029.04 1029.00 1028.92 1028.84 1028.53 1028.43 1028.38 1028.03 1027.65 1027.39 1027.05 1026.69 1026.26 1025.73 1025.16 1024.48 1023.94 1023.15 1022.33 1021.59 1020.75
Thickness
5664 5664 5663 5661 5659 5658 5654 5648 5643 5637 5630 5624 5619 5615 5609 5606 5602 5598 5596 5594 5591 5589 5588 5587 5586 5584 5583 5583 5583 5582 5581 5585
5649 5650 5654 5650 5645 5644 5639 5633 5626 5623 5617 5614 5609 5604 5598 5594 5591 5587 5585 5581 5579 5577 5575 5572 5570 5571 5570 5569 5569 5569 5568 5570
5650 5641 5646 5643 5636 5633 5629 5624 5619 5614 5611 5606 5601 5594 5587 5582 5578 5575 5571 5568 5564 5561 5558 5555 5554 5554 5555 5553 5552 5551 5550 5551
5643 5640 5640 5635 5628 5626 5623 5618 5613 5608 5603 5597 5590 5583 5576 5570 5566 5563 5560 5556 5552 5549 5543 5539 5537 5537 5535 5535 5534 5532 5531 5531
5641 5636 5632 5629 5624 5622 5619 5611 5605 5597 5591 5585 5577 5567 5560 5554 5550 5547 5545 5542 5539 5535 5531 5528 5525 5523 5521 5520 5519 5518 5517 5517
5638 5632 5629 5626 5622 5618 5610 5602 5595 5587 5581 5574 5566 5556 5549 5544 5540 5536 5534 5532 5528 5524 5522 5517 5512 5511 5509 5508 5506 5504 5504 5504
5632 5629 5625 5621 5615 5609 5600 5592 5582 5576 5570 5564 5557 5548 5541 5535 5530 5525 5522 5520 5518 5514 5511 5507 5504 5500 5498 5496 5494 5492 5489 5488
5623 5617 5614 5613 5605 5596 5586 5579 5570 5566 5560 5553 5545 5539 5533 5526 5518 5514 5511 5510 5508 5504 5501 5498 5494 5492 5489 5486 5483 5481 5478 5476
5608 5607 5603 5597 5594 5585 5574 5568 5563 5552 5548 5542 5535 5528 5521 5515 5508 5504 5500 5496 5494 5491 5488 5485 5482 5479 5476 5473 5470 5469 5466 5462
5595 5590 5585 5580 5574 5567 5562 5558 5548 5542 5536 5528 5520 5513 5508 5502 5497 5492 5487 5483 5481 5477 5476 5471 5467 5463 5460 5457 5453 5448 5447 5445
5582 5576 5570 5563 5558 5552 5548 5542 5535 5529 5522 5514 5505 5498 5493 5487 5482 5477 5473 5468 5464 5460 5455 5451 5446 5441 5437 5433 5431 5428 5425 5422
5574 5567 5558 5550 5544 5538 5532 5527 5521 5513 5505 5497 5491 5484 5479 5473 5467 5462 5457 5453 5448 5443 5437 5431 5425 5419 5414 5408 5402 5397 5390 5385
5563 5555 5549 5542 5533 5526 5520 5513 5506 5497 5489 5483 5477 5472 5467 5462 5457 5451 5445 5438 5432 5425 5417 5410 5403 5394 5385 5376 5369 5360 5352 5347
5553 5547 5541 5534 5525 5516 5508 5501 5493 5486 5479 5472 5467 5461 5456 5451 5445 5438 5431 5424 5416 5407 5399 5390 5379 5368 5358 5346 5336 5326 5318 5312
5547 5539 5531 5524 5515 5506 5499 5490 5483 5476 5469 5462 5455 5449 5445 5440 5433 5426 5418 5409 5399 5389 5377 5366 5354 5342 5329 5316 5306 5298 5294 5291
5542 5533 5522 5513 5504 5496 5490 5479 5472 5465 5458 5452 5445 5440 5436 5428 5420 5411 5402 5392 5381 5368 5357 5343 5328 5312 5300 5289 5282 5278 5273 5272
5538 5529 5518 5506 5496 5487 5479 5469 5462 5455 5450 5442 5435 5430 5423 5414 5406 5397 5387 5375 5362 5349 5335 5319 5302 5287 5276 5268 5259 5255 5249 5243
5534 5524 5511 5498 5486 5478 5469 5461 5453 5445 5440 5432 5425 5419 5411 5403 5394 5383 5371 5359 5345 5330 5314 5296 5280 5268 5258 5248 5239 5229 5221 5214
5524 5513 5499 5487 5478 5469 5461 5452 5443 5436 5430 5422 5415 5407 5400 5392 5381 5369 5357 5344 5329 5312 5294 5277 5262 5250 5239 5228 5217 5208 5199 5191